SCP
-0 -0 -0 0 0 0 0 0 -0 -0 -0 -0 -0 -0 0 0 0 0 -0 0 0 0 0 0 0 0 0 -0 -0 0 0 0 0 0 0 0 0 0
-0 0 0 -0 0 0 0 0 0 -0 0 -0 -0 -0 0 0 0 0 -0 0 0 0 0 0 0 0 0 0 0 -0 0 -0 0 0 0 0 0 0
0 0 0 0 0 0 0 0 0 0 -0 0 0 0 -0 -0 0 0 0 0 0 0 0 0 0 0 0 0 0 0 0 0 0 0 0 0 0 0
0 0 0 0 0 0 0 0 0 0 -0 -0 -0 -0 -0 0 1 1 0 -0 0 0 0 0 0 0 0 0 0 0 0 0 0 0 0 0 0 0
0 0 0 0 0 0 0 0 0 0 0 0 0 -0 -0 -0 0 1 1 0 0 0 0 0 0 0 -0 -0 0 0 0 -0 0 0 0 0 0 0
0 0 0 0 0 0 0 0 0 0 0 0 -0 0 0 -0 0 0 0 -0 0 -0 -0 0 0 0 -0 -0 -0 0 0 0 0 0 0 0 0 0
0 0 0 0 0 0 0 0 1 0 -0 -0 -0 -0 -0 0 0 -0 -0 0 -0 -0 -0 -0 -0 -0 -0 0 0 0 0 0 0 0 0 0 0 0
0 0 0 0 0 0 0 0 0 0 0 0 0 0 -0 0 0 -0 -0 -0 -0 -0 -0 -0 -0 -0 -0 -0 0 0 0 0 0 0 0 0 0 0
0 0 0 0 0 0 0 0 0 0 0 1 1 1 0 0 0 0 0 0 0 -0 -0 -0 -0 -0 -0 0 0 0 0 0 0 0 0 0 0 0
0 0 0 1 0 0 1 0 0 0 0 1 1 1 1 1 1 1 0 0 1 1 1 0 -0 0 0 0 0 0 0 0 0 0 0 0 0 0
0 0 1 0 0 0 0 0 0 1 0 0 0 0 0 0 0 0 0 0 0 0 0 0 0 0 1 0 0 0 0 0 0 0 0 0 0 0
0 0 0 0 0 0 0 0 0 0 0 0 0 0 0 0 0 1 1 1 1 1 1 1 1 1 0 0 1 0 1 0 0 0 0 0 0 0
0 0 0 0 0 0 0 0 0 0 0 0 0 0 0 0 1 2 2 2 1 1 1 1 1 0 0 0 0 0 1 0 1 0 0 0 0 0
0 0 0 0 0 0 0 0 0 0 0 0 0 0 0 0 0 0 1 1 1 1 1 1 1 1 1 0 0 0 0 1 1 1 1 0 0 0
0 0 0 0 0 0 0 0 0 0 0 0 0 0 0 0 0 0 0 0 0 1 0 1 1 0 1 1 1 0 0 0 1 1 1 1 1 0
0 0 0 0 0 0 0 0 0 0 0 0 0 0 0 0 0 0 0 0 0 0 0 0 1 1 0 0 0 0 0 0 1 1 1 1 1 1
0 0 0 0 0 0 0 0 0 0 0 0 0 0 0 0 0 0 0 0 0 0 0 0 0 0 0 0 0 0 0 0 0 0 1 1 1 1
0 0 0 0 0 0 0 0 0 0 0 0 0 0 0 0 0 0 0 0 0 0 0 0 0 0 0 0 0 0 0 0 0 0 0 0 0 0
0 0 0 0 0 0 0 0 0 0 0 0 0 0 0 0 0 0 0 0 0 0 0 0 0 0 0 0 0 0 0 0 0 0 0 0 0 0
0 0 0 0 0 0 0 0 0 0 0 0 0 0 0 0 0 0 0 0 0 0 0 0 0 0 0 0 0 0 0 0 0 0 0 0 0 0
0 0 0 0 0 0 0 0 0 0 0 0 0 0 0 0 0 0 0 0 0 0 0 0 0 0 0 0 0 0 0 0 0 0 0 0 0 0
0 0 0 0 0 0 0 0 0 0 0 0 0 0 0 0 0 0 0 0 0 0 0 0 0 0 0 0 0 0 0 0 0 0 0 0 0 0
0 0 0 0 0 0 0 0 0 0 0 0 0 0 0 0 0 0 0 0 0 0 0 0 0 0 0 0 0 0 0 0 0 0 0 0 0 0
Wind_Speed_500mb
12 15 15 7 10 10 10 12 17 25 30 13 17 11 12 22 36 33 39 34 30 32 45 40 36 34 34 36 39 34 28 26 26 29 31 37 43 42
16 15 18 13 15 16 15 17 18 22 30 29 27 29 31 36 32 46 35 36 37 30 41 47 37 33 34 36 40 38 31 23 26 30 29 31 35 39
24 15 18 20 19 19 20 20 21 22 30 31 31 34 44 31 33 31 33 33 30 39 35 44 41 39 40 39 40 42 37 25 23 29 27 28 32 34
21 22 22 21 23 22 21 23 24 28 27 38 33 30 30 30 35 30 32 26 32 32 42 44 37 45 42 45 43 45 36 34 24 24 27 27 30 29
23 22 21 21 24 20 24 20 20 22 20 26 29 26 28 31 27 30 30 36 33 32 35 35 37 39 42 44 49 45 43 35 34 26 24 24 24 24
23 23 23 23 22 24 17 22 21 20 21 24 26 28 28 30 27 28 34 31 31 35 34 32 39 43 41 40 40 40 42 50 36 32 26 25 25 26
23 24 22 25 29 31 24 21 25 21 23 28 30 30 29 30 33 32 37 35 37 35 40 37 44 38 35 34 34 31 46 50 37 28 27 25 27 27
23 24 24 30 37 30 31 33 34 38 39 31 33 35 44 35 34 37 37 39 42 33 42 48 31 36 33 32 37 46 49 52 38 27 23 22 26 31
28 30 25 23 27 27 30 33 33 33 36 37 42 46 49 45 43 47 38 42 44 50 36 40 42 45 39 35 40 47 46 49 40 31 30 30 34 35
30 29 29 33 43 38 41 35 31 30 35 41 45 46 43 45 47 47 57 61 53 50 46 49 49 45 43 39 38 42 46 43 42 35 37 44 47 49
36 28 33 38 39 40 39 38 33 30 26 38 42 50 57 58 57 54 52 41 49 46 43 45 41 46 49 43 40 44 50 41 39 41 45 46 43 45
18 26 26 27 30 28 24 23 23 24 32 34 32 36 38 39 39 37 44 46 46 51 31 44 41 44 51 43 28 41 43 49 50 48 44 44 46 46
3 3 20 19 19 21 21 23 25 29 28 29 28 27 28 26 30 32 33 37 44 47 50 44 46 42 40 54 45 45 41 44 39 44 42 39 41 36
9 8 13 13 16 19 22 23 25 29 26 23 25 26 26 24 25 30 32 33 37 41 46 46 49 48 50 52 49 41 38 42 40 39 35 45 47 41
16 17 19 22 24 21 26 28 30 20 22 25 25 26 27 30 34 31 27 32 33 34 36 45 41 47 48 52 57 59 61 52 40 39 35 37 39 51
29 27 27 25 22 22 20 18 20 22 23 23 25 26 28 29 32 33 36 36 39 39 33 31 36 40 39 44 45 47 45 49 55 47 47 48 48 45
21 10 6 5 9 12 11 11 11 16 18 23 26 29 30 32 32 32 34 38 41 43 41 38 39 46 47 48 49 48 49 47 41 38 47 51 47 35
7 8 1 4 8 14 12 14 12 12 15 21 25 27 30 31 34 37 35 35 41 43 44 44 46 50 51 50 39 49 43 42 48 51 53 58 53 45
9 6 9 12 13 19 18 19 20 26 28 27 30 29 28 30 35 37 37 40 43 44 44 44 45 45 54 61 57 42 57 71 74 75 53 51 58 60
7 8 10 12 14 16 20 22 23 26 26 32 34 32 37 35 37 38 36 39 41 44 48 47 41 41 45 55 71 83 75 70 55 66 64 63 61 66
10 10 11 13 15 18 22 25 27 26 30 30 29 31 36 42 42 42 45 49 52 51 56 55 54 62 71 78 80 79 71 63 65 74 81 76 74 75
9 10 12 14 17 19 22 26 25 26 27 28 30 32 34 41 44 41 43 49 53 54 65 73 75 69 65 60 75 83 85 77 71 73 82 83 86 88
9 12 16 19 20 24 28 29 29 30 30 33 35 39 40 41 41 45 49 51 54 59 62 71 71 65 64 67 71 81 83 81 78 80 81 71 78 89
Wind_Direction_500mb
239 241 222 269 265 275 285 298 309 309 313 317 347 317 313 322 322 327 324 319 345 334 345 342 335 339 344 351 356 353 351 354 350 352 358 1 5 7
239 249 248 257 275 269 275 283 287 289 293 293 306 329 325 320 321 313 324 341 332 334 336 347 341 341 342 345 350 353 345 338 345 347 348 356 3 7
232 245 265 265 264 267 283 279 283 289 291 290 301 304 306 321 313 326 332 334 329 322 333 341 344 345 340 337 341 346 349 333 333 342 345 348 356 1
239 243 253 262 277 288 276 280 281 291 290 291 296 306 309 309 314 323 331 336 329 322 336 333 333 338 349 343 336 336 340 350 330 330 343 344 350 355
239 246 250 257 265 261 259 262 276 284 298 296 303 305 304 310 310 319 322 327 328 328 328 328 324 336 336 334 339 340 342 339 341 328 326 335 343 347
237 242 245 248 248 263 268 273 290 292 297 294 295 301 308 309 317 330 329 321 324 326 327 332 325 328 323 321 325 325 327 332 328 331 323 319 327 333
234 243 251 254 243 242 249 264 260 278 286 289 294 297 301 309 319 315 313 316 318 318 319 317 316 321 320 322 317 312 322 321 323 321 322 315 316 319
247 256 261 252 264 269 275 269 265 273 278 279 284 286 286 295 296 299 300 307 309 314 312 314 328 322 322 321 320 316 313 316 313 314 317 317 315 313
243 240 245 271 263 257 277 287 287 290 290 293 291 291 288 290 290 295 297 290 299 305 311 305 316 312 315 313 310 309 318 327 309 300 300 299 300 297
254 252 255 245 254 260 264 269 276 284 286 286 285 290 292 293 287 288 290 298 302 309 307 303 306 313 313 310 314 317 316 319 330 320 317 315 302 295
252 254 260 265 268 266 267 276 282 284 276 280 274 276 277 278 283 287 289 289 292 297 301 309 306 303 299 304 308 304 305 316 319 313 320 320 325 323
277 272 277 283 288 293 291 284 282 271 287 283 290 299 310 299 290 289 286 288 287 295 298 308 311 311 309 307 298 300 298 295 297 304 307 309 311 315
111 41 294 304 303 304 301 297 296 299 303 307 313 313 311 316 302 300 297 296 295 292 299 292 301 303 300 299 300 301 303 297 298 300 297 304 301 305
201 264 282 305 312 315 314 314 310 313 326 318 322 321 321 319 315 309 319 314 314 309 312 304 302 306 307 309 308 307 303 296 292 292 293 295 293 292
270 280 288 295 296 301 301 312 319 322 309 307 309 310 314 316 318 323 309 303 313 315 313 312 311 320 317 310 309 307 309 307 305 290 284 283 286 288
293 295 298 310 320 322 332 323 313 303 301 310 308 308 312 313 314 316 315 314 314 315 309 306 311 313 307 305 305 309 313 308 313 311 300 293 291 283
287 293 311 289 303 302 304 314 318 314 318 314 316 317 316 315 314 312 309 310 311 309 311 311 308 304 304 305 303 300 304 303 309 314 320 316 309 306
10 353 322 287 335 307 314 326 322 320 300 325 329 321 319 317 316 317 320 313 310 310 310 312 311 310 311 305 301 306 298 297 285 283 288 296 293 294
55 21 18 17 9 350 339 338 332 322 318 313 309 306 309 316 318 315 313 314 314 310 304 302 306 309 309 303 301 288 292 286 291 303 307 295 289 286
62 41 20 12 358 345 336 330 327 327 331 325 327 329 326 317 315 309 303 306 307 302 303 305 310 309 304 304 299 285 289 299 301 296 292 283 276 278
31 22 9 358 346 334 326 328 323 326 325 327 326 323 317 317 312 311 309 303 301 302 297 293 283 271 275 278 288 291 291 283 272 278 286 289 288 289
24 14 348 337 332 321 319 316 322 328 324 323 319 319 313 301 300 307 306 305 305 303 301 303 306 303 297 293 289 290 292 291 280 270 268 270 279 283
355 345 343 340 334 331 330 329 330 327 327 324 324 319 317 312 309 307 305 302 301 301 301 303 304 303 300 301 298 297 298 297 296 292 285 277 273 270
Wind_Speed_850mb
12 15 15 7 10 10 10 12 17 25 30 13 17 11 12 22 36 33 39 34 30 32 45 40 36 34 34 36 39 34 28 26 26 29 31 37 43 42
16 15 18 13 15 16 15 17 18 22 30 29 27 29 31 36 32 46 35 36 37 30 41 47 37 33 34 36 40 38 31 23 26 30 29 31 35 39
24 15 18 20 19 19 20 20 21 22 30 31 31 34 44 31 33 31 33 33 30 39 35 44 41 39 40 39 40 42 37 25 23 29 27 28 32 34
21 22 22 21 23 22 21 23 24 28 27 38 33 30 30 30 35 30 32 26 32 32 42 44 37 45 42 45 43 45 36 34 24 24 27 27 30 29
23 22 21 21 24 20 24 20 20 22 20 26 29 26 28 31 27 30 30 36 33 32 35 35 37 39 42 44 49 45 43 35 34 26 24 24 24 24
23 23 23 23 22 24 17 22 21 20 21 24 26 28 28 30 27 28 34 31 31 35 34 32 39 43 41 40 40 40 42 50 36 32 26 25 25 26
23 24 22 25 29 31 24 21 25 21 23 28 30 30 29 30 33 32 37 35 37 35 40 37 44 38 35 34 34 31 46 50 37 28 27 25 27 27
23 24 24 30 37 30 31 33 34 38 39 31 33 35 44 35 34 37 37 39 42 33 42 48 31 36 33 32 37 46 49 52 38 27 23 22 26 31
28 30 25 23 27 27 30 33 33 33 36 37 42 46 49 45 43 47 38 42 44 50 36 40 42 45 39 35 40 47 46 49 40 31 30 30 34 35
30 29 29 33 43 38 41 35 31 30 35 41 45 46 43 45 47 47 57 61 53 50 46 49 49 45 43 39 38 42 46 43 42 35 37 44 47 49
36 28 33 38 39 40 39 38 33 30 26 38 42 50 57 58 57 54 52 41 49 46 43 45 41 46 49 43 40 44 50 41 39 41 45 46 43 45
18 26 26 27 30 28 24 23 23 24 32 34 32 36 38 39 39 37 44 46 46 51 31 44 41 44 51 43 28 41 43 49 50 48 44 44 46 46
3 3 20 19 19 21 21 23 25 29 28 29 28 27 28 26 30 32 33 37 44 47 50 44 46 42 40 54 45 45 41 44 39 44 42 39 41 36
9 8 13 13 16 19 22 23 25 29 26 23 25 26 26 24 25 30 32 33 37 41 46 46 49 48 50 52 49 41 38 42 40 39 35 45 47 41
16 17 19 22 24 21 26 28 30 20 22 25 25 26 27 30 34 31 27 32 33 34 36 45 41 47 48 52 57 59 61 52 40 39 35 37 39 51
29 27 27 25 22 22 20 18 20 22 23 23 25 26 28 29 32 33 36 36 39 39 33 31 36 40 39 44 45 47 45 49 55 47 47 48 48 45
21 10 6 5 9 12 11 11 11 16 18 23 26 29 30 32 32 32 34 38 41 43 41 38 39 46 47 48 49 48 49 47 41 38 47 51 47 35
7 8 1 4 8 14 12 14 12 12 15 21 25 27 30 31 34 37 35 35 41 43 44 44 46 50 51 50 39 49 43 42 48 51 53 58 53 45
9 6 9 12 13 19 18 19 20 26 28 27 30 29 28 30 35 37 37 40 43 44 44 44 45 45 54 61 57 42 57 71 74 75 53 51 58 60
7 8 10 12 14 16 20 22 23 26 26 32 34 32 37 35 37 38 36 39 41 44 48 47 41 41 45 55 71 83 75 70 55 66 64 63 61 66
10 10 11 13 15 18 22 25 27 26 30 30 29 31 36 42 42 42 45 49 52 51 56 55 54 62 71 78 80 79 71 63 65 74 81 76 74 75
9 10 12 14 17 19 22 26 25 26 27 28 30 32 34 41 44 41 43 49 53 54 65 73 75 69 65 60 75 83 85 77 71 73 82 83 86 88
9 12 16 19 20 24 28 29 29 30 30 33 35 39 40 41 41 45 49 51 54 59 62 71 71 65 64 67 71 81 83 81 78 80 81 71 78 89
Wind_Direction_850mb
239 241 222 269 265 275 285 298 309 309 313 317 347 317 313 322 322 327 324 319 345 334 345 342 335 339 344 351 356 353 351 354 350 352 358 1 5 7
239 249 248 257 275 269 275 283 287 289 293 293 306 329 325 320 321 313 324 341 332 334 336 347 341 341 342 345 350 353 345 338 345 347 348 356 3 7
232 245 265 265 264 267 283 279 283 289 291 290 301 304 306 321 313 326 332 334 329 322 333 341 344 345 340 337 341 346 349 333 333 342 345 348 356 1
239 243 253 262 277 288 276 280 281 291 290 291 296 306 309 309 314 323 331 336 329 322 336 333 333 338 349 343 336 336 340 350 330 330 343 344 350 355
239 246 250 257 265 261 259 262 276 284 298 296 303 305 304 310 310 319 322 327 328 328 328 328 324 336 336 334 339 340 342 339 341 328 326 335 343 347
237 242 245 248 248 263 268 273 290 292 297 294 295 301 308 309 317 330 329 321 324 326 327 332 325 328 323 321 325 325 327 332 328 331 323 319 327 333
234 243 251 254 243 242 249 264 260 278 286 289 294 297 301 309 319 315 313 316 318 318 319 317 316 321 320 322 317 312 322 321 323 321 322 315 316 319
247 256 261 252 264 269 275 269 265 273 278 279 284 286 286 295 296 299 300 307 309 314 312 314 328 322 322 321 320 316 313 316 313 314 317 317 315 313
243 240 245 271 263 257 277 287 287 290 290 293 291 291 288 290 290 295 297 290 299 305 311 305 316 312 315 313 310 309 318 327 309 300 300 299 300 297
254 252 255 245 254 260 264 269 276 284 286 286 285 290 292 293 287 288 290 298 302 309 307 303 306 313 313 310 314 317 316 319 330 320 317 315 302 295
252 254 260 265 268 266 267 276 282 284 276 280 274 276 277 278 283 287 289 289 292 297 301 309 306 303 299 304 308 304 305 316 319 313 320 320 325 323
277 272 277 283 288 293 291 284 282 271 287 283 290 299 310 299 290 289 286 288 287 295 298 308 311 311 309 307 298 300 298 295 297 304 307 309 311 315
111 41 294 304 303 304 301 297 296 299 303 307 313 313 311 316 302 300 297 296 295 292 299 292 301 303 300 299 300 301 303 297 298 300 297 304 301 305
201 264 282 305 312 315 314 314 310 313 326 318 322 321 321 319 315 309 319 314 314 309 312 304 302 306 307 309 308 307 303 296 292 292 293 295 293 292
270 280 288 295 296 301 301 312 319 322 309 307 309 310 314 316 318 323 309 303 313 315 313 312 311 320 317 310 309 307 309 307 305 290 284 283 286 288
293 295 298 310 320 322 332 323 313 303 301 310 308 308 312 313 314 316 315 314 314 315 309 306 311 313 307 305 305 309 313 308 313 311 300 293 291 283
287 293 311 289 303 302 304 314 318 314 318 314 316 317 316 315 314 312 309 310 311 309 311 311 308 304 304 305 303 300 304 303 309 314 320 316 309 306
10 353 322 287 335 307 314 326 322 320 300 325 329 321 319 317 316 317 320 313 310 310 310 312 311 310 311 305 301 306 298 297 285 283 288 296 293 294
55 21 18 17 9 350 339 338 332 322 318 313 309 306 309 316 318 315 313 314 314 310 304 302 306 309 309 303 301 288 292 286 291 303 307 295 289 286
62 41 20 12 358 345 336 330 327 327 331 325 327 329 326 317 315 309 303 306 307 302 303 305 310 309 304 304 299 285 289 299 301 296 292 283 276 278
31 22 9 358 346 334 326 328 323 326 325 327 326 323 317 317 312 311 309 303 301 302 297 293 283 271 275 278 288 291 291 283 272 278 286 289 288 289
24 14 348 337 332 321 319 316 322 328 324 323 319 319 313 301 300 307 306 305 305 303 301 303 306 303 297 293 289 290 292 291 280 270 268 270 279 283
355 345 343 340 334 331 330 329 330 327 327 324 324 319 317 312 309 307 305 302 301 301 301 303 304 303 300 301 298 297 298 297 296 292 285 277 273 270